Location: Sungai Jaoh
(2.9167°N, 113.9167°E)
Time: 16:09:06
(UTC+00:00)

BLOCK DM-SL R/B - Pass Details

Date: 30 November 2020
Orbit: 179 x 24505 km, 0.3° (Epoch: 25 January)

Event Time Altitude Azimuth Distance (km) Brightness Sun altitude
Exits shadow 19:33:45 41° 112° (ESE) 1,370 4.5 -37.8°
Drops below altitude 10° 19:43:30 10° 94° (E) 5,809 8.2 -35.6°
Sets 19:55:24 0° 92° (E) 10,354 9.7 -32.9°
